Year,Month,Day,Hour,Minute,Value (Times are PST for temperature in C)
2007,10,26,00,00,2.40
2007,10,26,00,01,2.40
2007,10,26,00,02,2.40
2007,10,26,00,03,2.40
2007,10,26,00,04,2.40
2007,10,26,00,05,2.40
2007,10,26,00,06,2.40
2007,10,26,00,07,2.40
2007,10,26,00,08,2.40
2007,10,26,00,09,2.40
2007,10,26,00,10,2.40
2007,10,26,00,11,2.40
2007,10,26,00,12,2.40
2007,10,26,00,13,2.40
2007,10,26,00,14,2.40
2007,10,26,00,15,2.40
2007,10,26,00,16,2.40
2007,10,26,00,17,2.40
2007,10,26,00,18,2.40
2007,10,26,00,19,2.40
2007,10,26,00,20,2.40
2007,10,26,00,21,2.50
2007,10,26,00,22,2.50
2007,10,26,00,23,2.50
2007,10,26,00,24,2.50
2007,10,26,00,25,2.50
2007,10,26,00,26,2.50
2007,10,26,00,27,2.50
2007,10,26,00,28,2.50
2007,10,26,00,29,2.50
2007,10,26,00,30,2.60
2007,10,26,00,31,2.60
2007,10,26,00,32,2.60
2007,10,26,00,33,2.70
2007,10,26,00,34,2.70
2007,10,26,00,35,2.70
2007,10,26,00,36,2.70
2007,10,26,00,37,2.70
2007,10,26,00,38,2.70
2007,10,26,00,39,2.70
2007,10,26,00,40,2.70
2007,10,26,00,41,2.60
2007,10,26,00,42,2.60
2007,10,26,00,43,2.60
2007,10,26,00,44,2.60
2007,10,26,00,45,2.60
2007,10,26,00,46,2.60
2007,10,26,00,47,2.60
2007,10,26,00,48,2.60
2007,10,26,00,49,2.50
2007,10,26,00,50,2.50
2007,10,26,00,51,2.50
2007,10,26,00,52,2.50
2007,10,26,00,53,2.50
2007,10,26,00,54,2.50
2007,10,26,00,55,2.50
2007,10,26,00,56,2.50
2007,10,26,00,57,2.50
2007,10,26,00,58,2.60
2007,10,26,00,59,2.60
2007,10,26,01,00,2.60
2007,10,26,01,01,2.60
2007,10,26,01,02,2.60
2007,10,26,01,03,2.60
2007,10,26,01,04,2.60
2007,10,26,01,05,2.60
2007,10,26,01,06,2.60
2007,10,26,01,07,2.50
2007,10,26,01,08,2.50
2007,10,26,01,09,2.50
2007,10,26,01,10,2.40
2007,10,26,01,11,2.40
2007,10,26,01,12,2.40
2007,10,26,01,13,2.40
2007,10,26,01,14,2.40
2007,10,26,01,15,2.40
2007,10,26,01,16,2.40
2007,10,26,01,17,2.40
2007,10,26,01,18,2.40
2007,10,26,01,19,2.40
2007,10,26,01,20,2.40
2007,10,26,01,21,2.40
2007,10,26,01,22,2.40
2007,10,26,01,23,2.40
2007,10,26,01,24,2.40
2007,10,26,01,25,2.40
2007,10,26,01,26,2.40
2007,10,26,01,27,2.40
2007,10,26,01,28,2.40
2007,10,26,01,29,2.40
2007,10,26,01,30,2.40
2007,10,26,01,31,2.30
2007,10,26,01,32,2.30
2007,10,26,01,33,2.30
2007,10,26,01,34,2.30
2007,10,26,01,35,2.30
2007,10,26,01,36,2.30
2007,10,26,01,37,2.30
2007,10,26,01,38,2.30
2007,10,26,01,39,2.30
2007,10,26,01,40,2.30
2007,10,26,01,41,2.30
2007,10,26,01,42,2.30
2007,10,26,01,43,2.30
2007,10,26,01,44,2.30
2007,10,26,01,45,2.20
2007,10,26,01,46,2.20
2007,10,26,01,47,2.20
2007,10,26,01,48,2.20
2007,10,26,01,49,2.10
2007,10,26,01,50,2.10
2007,10,26,01,51,2.10
2007,10,26,01,52,2.10
2007,10,26,01,53,2.10
2007,10,26,01,54,2.10
2007,10,26,01,55,2.10
2007,10,26,01,56,2.10
2007,10,26,01,57,2.10
2007,10,26,01,58,2.10
2007,10,26,01,59,2.10
2007,10,26,02,00,2.00
2007,10,26,02,01,2.00
2007,10,26,02,02,2.00
2007,10,26,02,03,2.00
2007,10,26,02,04,2.10
2007,10,26,02,05,2.10
2007,10,26,02,06,2.00
2007,10,26,02,07,2.00
2007,10,26,02,08,2.00
2007,10,26,02,09,2.00
2007,10,26,02,10,2.00
2007,10,26,02,11,2.00
2007,10,26,02,12,1.90
2007,10,26,02,13,1.90
2007,10,26,02,14,1.90
2007,10,26,02,15,1.90
2007,10,26,02,16,1.90
2007,10,26,02,17,1.90
2007,10,26,02,18,1.90
2007,10,26,02,19,1.90
2007,10,26,02,20,1.90
2007,10,26,02,21,1.80
2007,10,26,02,22,1.80
2007,10,26,02,23,1.80
2007,10,26,02,24,1.80
2007,10,26,02,25,1.80
2007,10,26,02,26,1.80
2007,10,26,02,27,1.80
2007,10,26,02,28,1.80
2007,10,26,02,29,1.80
2007,10,26,02,30,1.80
2007,10,26,02,31,1.80
2007,10,26,02,32,1.80
2007,10,26,02,33,1.80
2007,10,26,02,34,1.80
2007,10,26,02,35,1.80
2007,10,26,02,36,1.70
2007,10,26,02,37,1.70
2007,10,26,02,38,1.70
2007,10,26,02,39,1.70
2007,10,26,02,40,1.70
2007,10,26,02,41,1.70
2007,10,26,02,42,1.70
2007,10,26,02,43,1.70
2007,10,26,02,44,1.70
2007,10,26,02,45,1.70
2007,10,26,02,46,1.70
2007,10,26,02,47,1.70
2007,10,26,02,48,1.70
2007,10,26,02,49,1.70
2007,10,26,02,50,1.70
2007,10,26,02,51,1.60
2007,10,26,02,52,1.60
2007,10,26,02,53,1.60
2007,10,26,02,54,1.60
2007,10,26,02,55,1.60
2007,10,26,02,56,1.60
2007,10,26,02,57,1.60
2007,10,26,02,58,1.60
2007,10,26,02,59,1.60
2007,10,26,03,00,1.60
2007,10,26,03,01,1.60
2007,10,26,03,02,1.50
2007,10,26,03,03,1.50
2007,10,26,03,04,1.50
2007,10,26,03,05,1.50
2007,10,26,03,06,1.40
2007,10,26,03,07,1.40
2007,10,26,03,08,1.40
2007,10,26,03,09,1.40
2007,10,26,03,10,1.40
2007,10,26,03,11,1.40
2007,10,26,03,12,1.40
2007,10,26,03,13,1.40
2007,10,26,03,14,1.40
2007,10,26,03,15,1.40
2007,10,26,03,16,1.50
2007,10,26,03,17,1.50
2007,10,26,03,18,1.60
2007,10,26,03,19,1.60
2007,10,26,03,20,1.60
2007,10,26,03,21,1.70
2007,10,26,03,22,1.70
2007,10,26,03,23,1.70
2007,10,26,03,24,1.70
2007,10,26,03,25,1.70
2007,10,26,03,26,1.70
2007,10,26,03,27,1.70
2007,10,26,03,28,1.70
2007,10,26,03,29,1.70
2007,10,26,03,30,1.70
2007,10,26,03,31,1.70
2007,10,26,03,32,1.70
2007,10,26,03,33,1.70
2007,10,26,03,34,1.70
2007,10,26,03,35,1.80
2007,10,26,03,36,1.70
2007,10,26,03,37,1.80
2007,10,26,03,38,1.80
2007,10,26,03,39,1.80
2007,10,26,03,40,1.80
2007,10,26,03,41,1.80
2007,10,26,03,42,1.80
2007,10,26,03,43,1.80
2007,10,26,03,44,1.70
2007,10,26,03,45,1.70
2007,10,26,03,46,1.70
2007,10,26,03,47,1.70
2007,10,26,03,48,1.70
2007,10,26,03,49,1.80
2007,10,26,03,50,1.80
2007,10,26,03,51,1.90
2007,10,26,03,52,2.00
2007,10,26,03,53,2.10
2007,10,26,03,54,2.20
2007,10,26,03,55,2.30
2007,10,26,03,56,2.30
2007,10,26,03,57,2.40
2007,10,26,03,58,2.40
2007,10,26,03,59,2.40
2007,10,26,04,00,2.50
2007,10,26,04,01,2.60
2007,10,26,04,02,2.60
2007,10,26,04,03,2.70
2007,10,26,04,04,2.80
2007,10,26,04,05,2.80
2007,10,26,04,06,2.90
2007,10,26,04,07,2.90
2007,10,26,04,08,2.90
2007,10,26,04,09,3.00
2007,10,26,04,10,3.00
2007,10,26,04,11,3.00
2007,10,26,04,12,3.00
2007,10,26,04,13,3.00
2007,10,26,04,14,3.10
2007,10,26,04,15,3.10
2007,10,26,04,16,3.10
2007,10,26,04,17,3.10
2007,10,26,04,18,3.10
2007,10,26,04,19,3.10
2007,10,26,04,20,3.10
2007,10,26,04,21,3.10
2007,10,26,04,22,3.10
2007,10,26,04,23,3.20
2007,10,26,04,24,3.20
2007,10,26,04,25,3.20
2007,10,26,04,26,3.20
2007,10,26,04,27,3.20
2007,10,26,04,28,3.20
2007,10,26,04,29,3.20
2007,10,26,04,30,3.20
2007,10,26,04,31,3.20
2007,10,26,04,32,3.20
2007,10,26,04,33,3.10
2007,10,26,04,34,3.10
2007,10,26,04,35,3.20
2007,10,26,04,36,3.10
2007,10,26,04,37,3.10
2007,10,26,04,38,3.00
2007,10,26,04,39,3.00
2007,10,26,04,40,2.90
2007,10,26,04,41,2.90
2007,10,26,04,42,2.90
2007,10,26,04,43,2.90
2007,10,26,04,44,2.90
2007,10,26,04,45,3.10
2007,10,26,04,46,3.20
2007,10,26,04,47,3.30
2007,10,26,04,48,3.40
2007,10,26,04,49,3.50
2007,10,26,04,50,3.60
2007,10,26,04,51,3.70
2007,10,26,04,52,3.70
2007,10,26,04,53,3.80
2007,10,26,04,54,3.90
2007,10,26,04,55,3.90
2007,10,26,04,56,4.00
2007,10,26,04,57,4.10
2007,10,26,04,58,4.20
2007,10,26,04,59,4.30
2007,10,26,05,00,4.30
2007,10,26,05,01,4.40
2007,10,26,05,02,4.50
2007,10,26,05,03,4.50
2007,10,26,05,04,4.60
2007,10,26,05,05,4.60
2007,10,26,05,06,4.70
2007,10,26,05,07,4.70
2007,10,26,05,08,4.80
2007,10,26,05,09,4.80
2007,10,26,05,10,4.80
2007,10,26,05,11,4.90
2007,10,26,05,12,4.90
2007,10,26,05,13,4.90
2007,10,26,05,14,4.90
2007,10,26,05,15,4.90
2007,10,26,05,16,4.90
2007,10,26,05,17,5.00
2007,10,26,05,18,5.00
2007,10,26,05,19,5.00
2007,10,26,05,20,5.10
2007,10,26,05,21,5.10
2007,10,26,05,22,5.10
2007,10,26,05,23,5.20
2007,10,26,05,24,5.20
2007,10,26,05,25,5.20
2007,10,26,05,26,5.30
2007,10,26,05,27,5.30
2007,10,26,05,28,5.30
2007,10,26,05,29,5.30
2007,10,26,05,30,5.30
2007,10,26,05,31,5.30
2007,10,26,05,32,5.20
2007,10,26,05,33,5.20
2007,10,26,05,34,5.20
2007,10,26,05,35,5.10
2007,10,26,05,36,5.10
2007,10,26,05,37,5.10
2007,10,26,05,38,5.10
2007,10,26,05,39,5.10
2007,10,26,05,40,5.10
2007,10,26,05,41,5.10
2007,10,26,05,42,5.10
2007,10,26,05,43,5.20
2007,10,26,05,44,5.20
2007,10,26,05,45,5.20
2007,10,26,05,46,5.30
2007,10,26,05,47,5.30
2007,10,26,05,48,5.30
2007,10,26,05,49,5.30
2007,10,26,05,50,5.30
2007,10,26,05,51,5.30
2007,10,26,05,52,5.30
2007,10,26,05,53,5.30
2007,10,26,05,54,5.30
2007,10,26,05,55,5.30
2007,10,26,05,56,5.30
2007,10,26,05,57,5.30
2007,10,26,05,58,5.30
2007,10,26,05,59,5.20
2007,10,26,06,00,5.20
2007,10,26,06,01,5.20
2007,10,26,06,02,5.20
2007,10,26,06,03,5.10
2007,10,26,06,04,5.10
2007,10,26,06,05,5.10
2007,10,26,06,06,5.10
2007,10,26,06,07,5.10
2007,10,26,06,08,5.00
2007,10,26,06,09,5.00
2007,10,26,06,10,4.90
2007,10,26,06,11,4.90
2007,10,26,06,12,4.80
2007,10,26,06,13,4.80
2007,10,26,06,14,4.70
2007,10,26,06,15,4.70
2007,10,26,06,16,4.70
2007,10,26,06,17,4.60
2007,10,26,06,18,4.60
2007,10,26,06,19,4.50
2007,10,26,06,20,4.40
2007,10,26,06,21,4.40
2007,10,26,06,22,4.30
2007,10,26,06,23,4.30
2007,10,26,06,24,4.30
2007,10,26,06,25,4.20
2007,10,26,06,26,4.20
2007,10,26,06,27,4.20
2007,10,26,06,28,4.10
2007,10,26,06,29,4.10
2007,10,26,06,30,4.10
2007,10,26,06,31,4.00
2007,10,26,06,32,4.00
2007,10,26,06,33,3.90
2007,10,26,06,34,3.90
2007,10,26,06,35,3.90
2007,10,26,06,36,3.90
2007,10,26,06,37,3.90
2007,10,26,06,38,3.90
2007,10,26,06,39,3.90
2007,10,26,06,40,3.90
2007,10,26,06,41,3.90
2007,10,26,06,42,3.80
2007,10,26,06,43,3.80
2007,10,26,06,44,3.70
2007,10,26,06,45,3.70
2007,10,26,06,46,3.70
2007,10,26,06,47,3.60
2007,10,26,06,48,3.60
2007,10,26,06,49,3.50
2007,10,26,06,50,3.50
2007,10,26,06,51,3.50
2007,10,26,06,52,3.40
2007,10,26,06,53,3.40
2007,10,26,06,54,3.30
2007,10,26,06,55,3.30
2007,10,26,06,56,3.30
2007,10,26,06,57,3.30
2007,10,26,06,58,3.30
2007,10,26,06,59,3.20
2007,10,26,07,00,3.20
2007,10,26,07,01,3.20
2007,10,26,07,02,3.20
2007,10,26,07,03,3.20
2007,10,26,07,04,3.20
2007,10,26,07,05,3.20
2007,10,26,07,06,3.20
2007,10,26,07,07,3.20
2007,10,26,07,08,3.20
2007,10,26,07,09,3.20
2007,10,26,07,10,3.20
2007,10,26,07,11,3.20
2007,10,26,07,12,3.20
2007,10,26,07,13,3.20
2007,10,26,07,14,3.20
2007,10,26,07,15,3.10
2007,10,26,07,16,3.10
2007,10,26,07,17,3.10
2007,10,26,07,18,3.10
2007,10,26,07,19,3.10
2007,10,26,07,20,3.10
2007,10,26,07,21,3.00
2007,10,26,07,22,3.00
2007,10,26,07,23,2.90
2007,10,26,07,24,2.90
2007,10,26,07,25,2.90
2007,10,26,07,26,2.90
2007,10,26,07,27,3.00
2007,10,26,07,28,3.00
2007,10,26,07,29,3.10
2007,10,26,07,30,3.10
2007,10,26,07,31,3.20
2007,10,26,07,32,3.20
2007,10,26,07,33,3.30
2007,10,26,07,34,3.30
2007,10,26,07,35,3.30
2007,10,26,07,36,3.30
2007,10,26,07,37,3.30
2007,10,26,07,38,3.40
2007,10,26,07,39,3.40
2007,10,26,07,40,3.50
2007,10,26,07,41,3.60
2007,10,26,07,42,3.60
2007,10,26,07,43,3.60
2007,10,26,07,44,3.70
2007,10,26,07,45,3.80
2007,10,26,07,46,3.80
2007,10,26,07,47,3.80
2007,10,26,07,48,3.90
2007,10,26,07,49,4.00
2007,10,26,07,50,4.00
2007,10,26,07,51,4.10
2007,10,26,07,52,4.20
2007,10,26,07,53,4.20
2007,10,26,07,54,4.20
2007,10,26,07,55,4.20
2007,10,26,07,56,4.30
2007,10,26,07,57,4.30
2007,10,26,07,58,4.30
2007,10,26,07,59,4.30
2007,10,26,08,00,4.40
2007,10,26,08,01,4.40
2007,10,26,08,02,4.40
2007,10,26,08,03,4.50
2007,10,26,08,04,4.50
2007,10,26,08,05,4.60
2007,10,26,08,06,4.60
2007,10,26,08,07,4.60
2007,10,26,08,08,4.70
2007,10,26,08,09,4.70
2007,10,26,08,10,4.70
2007,10,26,08,11,4.70
2007,10,26,08,12,4.70
2007,10,26,08,13,4.70
2007,10,26,08,14,4.70
2007,10,26,08,15,4.70
2007,10,26,08,16,4.70
2007,10,26,08,17,4.70
2007,10,26,08,18,4.70
2007,10,26,08,19,4.70
2007,10,26,08,20,4.70
2007,10,26,08,21,4.70
2007,10,26,08,22,4.70
2007,10,26,08,23,4.70
2007,10,26,08,24,4.70
2007,10,26,08,25,4.80
2007,10,26,08,26,4.80
2007,10,26,08,27,4.80
2007,10,26,08,28,4.90
2007,10,26,08,29,4.90
2007,10,26,08,30,5.00
2007,10,26,08,31,5.00
2007,10,26,08,32,5.00
2007,10,26,08,33,5.10
2007,10,26,08,34,5.10
2007,10,26,08,35,5.20
2007,10,26,08,36,5.20
2007,10,26,08,37,5.20
2007,10,26,08,38,5.20
2007,10,26,08,39,5.20
2007,10,26,08,40,5.20
2007,10,26,08,41,5.30
2007,10,26,08,42,5.20
2007,10,26,08,43,5.20
2007,10,26,08,44,5.20
2007,10,26,08,45,5.20
2007,10,26,08,46,5.20
2007,10,26,08,47,5.20
2007,10,26,08,48,5.20
2007,10,26,08,49,5.20
2007,10,26,08,50,5.20
2007,10,26,08,51,5.20
2007,10,26,08,52,5.20
2007,10,26,08,53,5.20
2007,10,26,08,54,5.20
2007,10,26,08,55,5.20
2007,10,26,08,56,5.20
2007,10,26,08,57,5.20
2007,10,26,08,58,5.20
2007,10,26,08,59,5.30
2007,10,26,09,00,5.30
2007,10,26,09,01,5.30
2007,10,26,09,02,5.40
2007,10,26,09,03,5.40
2007,10,26,09,04,5.50
2007,10,26,09,05,5.50
2007,10,26,09,06,5.60
2007,10,26,09,07,5.60
2007,10,26,09,08,5.70
2007,10,26,09,09,5.70
2007,10,26,09,10,5.70
2007,10,26,09,11,5.80
2007,10,26,09,12,5.80
2007,10,26,09,13,5.80
2007,10,26,09,14,5.80
2007,10,26,09,15,5.80
2007,10,26,09,16,5.80
2007,10,26,09,17,5.80
2007,10,26,09,18,5.90
2007,10,26,09,19,5.90
2007,10,26,09,20,5.90
2007,10,26,09,21,6.00
2007,10,26,09,22,6.00
2007,10,26,09,23,6.10
2007,10,26,09,24,6.10
2007,10,26,09,25,6.10
2007,10,26,09,26,6.10
2007,10,26,09,27,6.20
2007,10,26,09,28,6.30
2007,10,26,09,29,6.30
2007,10,26,09,30,6.40
2007,10,26,09,31,6.50
2007,10,26,09,32,6.60
2007,10,26,09,33,6.70
2007,10,26,09,34,6.70
2007,10,26,09,35,6.80
2007,10,26,09,36,6.90
2007,10,26,09,37,7.00
2007,10,26,09,38,7.00
2007,10,26,09,39,7.10
2007,10,26,09,40,7.20
2007,10,26,09,41,7.20
2007,10,26,09,42,7.20
2007,10,26,09,43,7.30
2007,10,26,09,44,7.30
2007,10,26,09,45,7.40
2007,10,26,09,46,7.40
2007,10,26,09,47,7.50
2007,10,26,09,48,7.60
2007,10,26,09,49,7.60
2007,10,26,09,50,7.70
2007,10,26,09,51,7.70
2007,10,26,09,52,7.70
2007,10,26,09,53,7.80
2007,10,26,09,54,7.80
2007,10,26,09,55,7.80
2007,10,26,09,56,7.90
2007,10,26,09,57,7.90
2007,10,26,09,58,8.00
2007,10,26,09,59,8.00
2007,10,26,10,00,8.10
2007,10,26,10,01,8.10
2007,10,26,10,02,8.10
2007,10,26,10,03,8.10
2007,10,26,10,04,8.20
2007,10,26,10,05,8.20
2007,10,26,10,06,8.20
2007,10,26,10,07,8.20
2007,10,26,10,08,8.20
2007,10,26,10,09,8.30
2007,10,26,10,10,8.30
2007,10,26,10,11,8.30
2007,10,26,10,12,8.30
2007,10,26,10,13,8.30
2007,10,26,10,14,8.30
2007,10,26,10,15,8.30
2007,10,26,10,16,8.40
2007,10,26,10,17,8.40
2007,10,26,10,18,8.40
2007,10,26,10,19,8.50
2007,10,26,10,20,8.50
2007,10,26,10,21,8.50
2007,10,26,10,22,8.60
2007,10,26,10,23,8.60
2007,10,26,10,24,8.60
2007,10,26,10,25,8.60
2007,10,26,10,26,8.60
2007,10,26,10,27,8.70
2007,10,26,10,28,8.70
2007,10,26,10,29,8.70
2007,10,26,10,30,8.70
2007,10,26,10,31,8.70
2007,10,26,10,32,8.70
2007,10,26,10,33,8.70
2007,10,26,10,34,8.80
2007,10,26,10,35,8.70
2007,10,26,10,36,8.70
2007,10,26,10,37,8.70
2007,10,26,10,38,8.80
2007,10,26,10,39,8.80
2007,10,26,10,40,8.80
2007,10,26,10,41,8.80
2007,10,26,10,42,8.70
2007,10,26,10,43,8.70
2007,10,26,10,44,8.70
2007,10,26,10,45,8.80
2007,10,26,10,46,8.80
2007,10,26,10,47,8.80
2007,10,26,10,48,8.80
2007,10,26,10,49,8.80
2007,10,26,10,50,8.90
2007,10,26,10,51,8.90
2007,10,26,10,52,8.90
2007,10,26,10,53,8.90
2007,10,26,10,54,8.90
2007,10,26,10,55,8.90
2007,10,26,10,56,8.90
2007,10,26,10,57,8.80
2007,10,26,10,58,8.80
2007,10,26,10,59,8.90
2007,10,26,11,00,8.90
2007,10,26,11,01,8.80
2007,10,26,11,02,8.80
2007,10,26,11,03,8.80
2007,10,26,11,04,8.80
2007,10,26,11,05,8.90
2007,10,26,11,06,8.90
2007,10,26,11,07,8.90
2007,10,26,11,08,8.90
2007,10,26,11,09,8.90
2007,10,26,11,10,8.90
2007,10,26,11,11,8.90
2007,10,26,11,12,8.90
2007,10,26,11,13,8.90
2007,10,26,11,14,8.90
2007,10,26,11,15,8.90
2007,10,26,11,16,8.90
2007,10,26,11,17,8.90
2007,10,26,11,18,8.90
2007,10,26,11,19,8.90
2007,10,26,11,20,8.90
2007,10,26,11,21,8.90
2007,10,26,11,22,8.90
2007,10,26,11,23,8.90
2007,10,26,11,24,9.00
2007,10,26,11,25,9.00
2007,10,26,11,26,9.10
2007,10,26,11,27,9.20
2007,10,26,11,28,9.30
2007,10,26,11,29,9.30
2007,10,26,11,30,9.40
2007,10,26,11,31,9.40
2007,10,26,11,32,9.40
2007,10,26,11,33,9.40
2007,10,26,11,34,9.40
2007,10,26,11,35,9.40
2007,10,26,11,36,9.50
2007,10,26,11,37,9.50
2007,10,26,11,38,9.50
2007,10,26,11,39,9.50
2007,10,26,11,40,9.60
2007,10,26,11,41,9.60
2007,10,26,11,42,9.70
2007,10,26,11,43,9.70
2007,10,26,11,44,9.70
2007,10,26,11,45,9.80
2007,10,26,11,46,9.80
2007,10,26,11,47,9.80
2007,10,26,11,48,9.90
2007,10,26,11,49,9.90
2007,10,26,11,50,9.90
2007,10,26,11,51,9.80
2007,10,26,11,52,9.80
2007,10,26,11,53,9.70
2007,10,26,11,54,9.70
2007,10,26,11,55,9.60
2007,10,26,11,56,9.60
2007,10,26,11,57,9.50
2007,10,26,11,58,9.40
2007,10,26,11,59,9.40
2007,10,26,12,00,9.40
2007,10,26,12,01,9.40
2007,10,26,12,02,9.40
2007,10,26,12,03,9.40
2007,10,26,12,04,9.50
2007,10,26,12,05,9.50
2007,10,26,12,06,9.50
2007,10,26,12,07,9.60
2007,10,26,12,08,9.60
2007,10,26,12,09,9.60
2007,10,26,12,10,9.60
2007,10,26,12,11,9.70
2007,10,26,12,12,9.70
2007,10,26,12,13,9.70
2007,10,26,12,14,9.70
2007,10,26,12,15,9.70
2007,10,26,12,16,9.70
2007,10,26,12,17,9.70
2007,10,26,12,18,9.70
2007,10,26,12,19,9.70
2007,10,26,12,20,9.70
2007,10,26,12,21,9.80
2007,10,26,12,22,9.80
2007,10,26,12,23,9.90
2007,10,26,12,24,9.90
2007,10,26,12,25,9.90
2007,10,26,12,26,9.90
2007,10,26,12,27,9.90
2007,10,26,12,28,9.90
2007,10,26,12,29,10.00
2007,10,26,12,30,10.00
2007,10,26,12,31,10.10
2007,10,26,12,32,10.10
2007,10,26,12,33,10.20
2007,10,26,12,34,10.20
2007,10,26,12,35,10.20
2007,10,26,12,36,10.20
2007,10,26,12,37,10.30
2007,10,26,12,38,10.30
2007,10,26,12,39,10.30
2007,10,26,12,40,10.30
2007,10,26,12,41,10.30
2007,10,26,12,42,10.30
2007,10,26,12,43,10.30
2007,10,26,12,44,10.30
2007,10,26,12,45,10.20
2007,10,26,12,46,10.20
2007,10,26,12,47,10.20
2007,10,26,12,48,10.20
2007,10,26,12,49,10.20
2007,10,26,12,50,10.00
2007,10,26,12,51,10.00
2007,10,26,12,52,10.10
2007,10,26,12,53,10.20
2007,10,26,12,54,10.20
2007,10,26,12,55,10.30
2007,10,26,12,56,10.30
2007,10,26,12,57,10.40
2007,10,26,12,58,10.40
2007,10,26,12,59,10.40
2007,10,26,13,00,10.40
2007,10,26,13,01,10.40
2007,10,26,13,02,10.40
2007,10,26,13,03,10.40
2007,10,26,13,04,10.40
2007,10,26,13,05,10.40
2007,10,26,13,06,10.30
2007,10,26,13,07,10.40
2007,10,26,13,08,10.40
2007,10,26,13,09,10.40
2007,10,26,13,10,10.40
2007,10,26,13,11,10.40
2007,10,26,13,12,10.40
2007,10,26,13,13,10.30
2007,10,26,13,14,10.30
2007,10,26,13,15,10.30
2007,10,26,13,16,10.30
2007,10,26,13,17,10.30
2007,10,26,13,18,10.30
2007,10,26,13,19,10.30
2007,10,26,13,20,10.40
2007,10,26,13,21,10.40
2007,10,26,13,22,10.40
2007,10,26,13,23,10.40
2007,10,26,13,24,10.40
2007,10,26,13,25,10.40
2007,10,26,13,26,10.40
2007,10,26,13,27,10.40
2007,10,26,13,28,10.40
2007,10,26,13,29,10.40
2007,10,26,13,30,10.40
2007,10,26,13,31,10.30
2007,10,26,13,32,10.30
2007,10,26,13,33,10.40
2007,10,26,13,34,10.40
2007,10,26,13,35,10.50
2007,10,26,13,36,10.50
2007,10,26,13,37,10.60
2007,10,26,13,38,10.50
2007,10,26,13,39,10.60
2007,10,26,13,40,10.60
2007,10,26,13,41,10.60
2007,10,26,13,42,10.60
2007,10,26,13,43,10.70
2007,10,26,13,44,10.80
2007,10,26,13,45,10.80
2007,10,26,13,46,10.90
2007,10,26,13,47,10.90
2007,10,26,13,48,10.90
2007,10,26,13,49,10.90
2007,10,26,13,50,11.00
2007,10,26,13,51,11.10
2007,10,26,13,52,11.10
2007,10,26,13,53,11.20
2007,10,26,13,54,11.30
2007,10,26,13,55,11.30
2007,10,26,13,56,11.30
2007,10,26,13,57,11.30
2007,10,26,13,58,11.30
2007,10,26,13,59,11.30
2007,10,26,14,00,11.30
2007,10,26,14,01,11.30
2007,10,26,14,02,11.30
2007,10,26,14,03,11.30
2007,10,26,14,04,11.30
2007,10,26,14,05,11.20
2007,10,26,14,06,11.20
2007,10,26,14,07,11.10
2007,10,26,14,08,11.10
2007,10,26,14,09,11.10
2007,10,26,14,10,11.10
2007,10,26,14,11,11.10
2007,10,26,14,12,11.10
2007,10,26,14,13,11.10
2007,10,26,14,14,11.10
2007,10,26,14,15,11.10
2007,10,26,14,16,11.10
2007,10,26,14,17,11.10
2007,10,26,14,18,11.10
2007,10,26,14,19,11.10
2007,10,26,14,20,11.20
2007,10,26,14,21,11.20
2007,10,26,14,22,11.20
2007,10,26,14,23,11.20
2007,10,26,14,24,11.20
2007,10,26,14,25,11.20
2007,10,26,14,26,11.20
2007,10,26,14,27,11.20
2007,10,26,14,28,11.10
2007,10,26,14,29,11.10
2007,10,26,14,30,11.10
2007,10,26,14,31,11.10
2007,10,26,14,32,11.10
2007,10,26,14,33,11.10
2007,10,26,14,34,11.10
2007,10,26,14,35,11.20
2007,10,26,14,36,11.20
2007,10,26,14,37,11.20
2007,10,26,14,38,11.30
2007,10,26,14,39,11.30
2007,10,26,14,40,11.40
2007,10,26,14,41,11.40
2007,10,26,14,42,11.50
2007,10,26,14,43,11.50
2007,10,26,14,44,11.50
2007,10,26,14,45,11.50
2007,10,26,14,46,11.50
2007,10,26,14,47,11.50
2007,10,26,14,48,11.50
2007,10,26,14,49,11.50
2007,10,26,14,50,11.50
2007,10,26,14,51,11.40
2007,10,26,14,52,11.40
2007,10,26,14,53,11.30
2007,10,26,14,54,11.30
2007,10,26,14,55,11.30
2007,10,26,14,56,11.30
2007,10,26,14,57,11.40
2007,10,26,14,58,11.40
2007,10,26,14,59,11.50
2007,10,26,15,00,11.50
2007,10,26,15,01,11.50
2007,10,26,15,02,11.50
2007,10,26,15,03,11.50
2007,10,26,15,04,11.50
2007,10,26,15,05,11.40
2007,10,26,15,06,11.50
2007,10,26,15,07,11.50
2007,10,26,15,08,11.50
2007,10,26,15,09,11.60
2007,10,26,15,10,11.60
2007,10,26,15,11,11.60
2007,10,26,15,12,11.60
2007,10,26,15,13,11.60
2007,10,26,15,14,11.60
2007,10,26,15,15,11.60
2007,10,26,15,16,11.60
2007,10,26,15,17,11.60
2007,10,26,15,18,11.60
2007,10,26,15,19,11.70
2007,10,26,15,20,11.70
2007,10,26,15,21,11.70
2007,10,26,15,22,11.80
2007,10,26,15,23,11.80
2007,10,26,15,24,11.80
2007,10,26,15,25,11.70
2007,10,26,15,26,11.70
2007,10,26,15,27,11.60
2007,10,26,15,28,11.60
2007,10,26,15,29,11.50
2007,10,26,15,30,11.50
2007,10,26,15,31,11.40
2007,10,26,15,32,11.40
2007,10,26,15,33,11.40
2007,10,26,15,34,11.40
2007,10,26,15,35,11.40
2007,10,26,15,36,11.50
2007,10,26,15,37,11.50
2007,10,26,15,38,11.50
2007,10,26,15,39,11.60
2007,10,26,15,40,11.60
2007,10,26,15,41,11.70
2007,10,26,15,42,11.80
2007,10,26,15,43,11.90
2007,10,26,15,44,11.90
2007,10,26,15,45,11.90
2007,10,26,15,46,12.00
2007,10,26,15,47,12.00
2007,10,26,15,48,11.90
2007,10,26,15,49,11.80
2007,10,26,15,50,11.80
2007,10,26,15,51,11.70
2007,10,26,15,52,11.70
2007,10,26,15,53,11.70
2007,10,26,15,54,11.70
2007,10,26,15,55,11.70
2007,10,26,15,56,11.80
2007,10,26,15,57,11.80
2007,10,26,15,58,11.80
2007,10,26,15,59,11.80
2007,10,26,16,00,11.90
2007,10,26,16,01,11.90
2007,10,26,16,02,11.90
2007,10,26,16,03,11.80
2007,10,26,16,04,11.80
2007,10,26,16,05,11.80
2007,10,26,16,06,11.80
2007,10,26,16,07,11.80
2007,10,26,16,08,11.80
2007,10,26,16,09,11.80
2007,10,26,16,10,11.80
2007,10,26,16,11,11.80
2007,10,26,16,12,11.70
2007,10,26,16,13,11.70
2007,10,26,16,14,11.80
2007,10,26,16,15,11.80
2007,10,26,16,16,11.80
2007,10,26,16,17,11.80
2007,10,26,16,18,11.70
2007,10,26,16,19,11.70
2007,10,26,16,20,11.70
2007,10,26,16,21,11.60
2007,10,26,16,22,11.60
2007,10,26,16,23,11.60
2007,10,26,16,24,11.60
2007,10,26,16,25,11.60
2007,10,26,16,26,11.60
2007,10,26,16,27,11.60
2007,10,26,16,28,11.60
2007,10,26,16,29,11.50
2007,10,26,16,30,11.50
2007,10,26,16,31,11.60
2007,10,26,16,32,11.60
2007,10,26,16,33,11.60
2007,10,26,16,34,11.60
2007,10,26,16,35,11.60
2007,10,26,16,36,11.50
2007,10,26,16,37,11.40
2007,10,26,16,38,11.40
2007,10,26,16,39,11.40
2007,10,26,16,40,11.40
2007,10,26,16,41,11.40
2007,10,26,16,42,11.40
2007,10,26,16,43,11.30
2007,10,26,16,44,11.30
2007,10,26,16,45,11.30
2007,10,26,16,46,11.30
2007,10,26,16,47,11.20
2007,10,26,16,48,11.20
2007,10,26,16,49,11.20
2007,10,26,16,50,11.20
2007,10,26,16,51,11.20
2007,10,26,16,52,11.20
2007,10,26,16,53,11.20
2007,10,26,16,54,11.20
2007,10,26,16,55,11.30
2007,10,26,16,56,11.30
2007,10,26,16,57,11.30
2007,10,26,16,58,11.30
2007,10,26,16,59,11.20
2007,10,26,17,00,11.20
2007,10,26,17,01,11.20
2007,10,26,17,02,11.20
2007,10,26,17,03,11.10
2007,10,26,17,04,11.10
2007,10,26,17,05,11.00
2007,10,26,17,06,11.00
2007,10,26,17,07,11.00
2007,10,26,17,08,10.90
2007,10,26,17,09,10.90
2007,10,26,17,10,10.90
2007,10,26,17,11,10.90
2007,10,26,17,12,10.90
2007,10,26,17,13,10.90
2007,10,26,17,14,10.90
2007,10,26,17,15,10.90
2007,10,26,17,16,10.90
2007,10,26,17,17,10.90
2007,10,26,17,18,10.90
2007,10,26,17,19,10.90
2007,10,26,17,20,10.80
2007,10,26,17,21,10.80
2007,10,26,17,22,10.80
2007,10,26,17,23,10.80
2007,10,26,17,24,10.80
2007,10,26,17,25,10.70
2007,10,26,17,26,10.70
2007,10,26,17,27,10.60
2007,10,26,17,28,10.60
2007,10,26,17,29,10.60
2007,10,26,17,30,10.60
2007,10,26,17,31,10.50
2007,10,26,17,32,10.50
2007,10,26,17,33,10.40
2007,10,26,17,34,10.40
2007,10,26,17,35,10.40
2007,10,26,17,36,10.40
2007,10,26,17,37,10.30
2007,10,26,17,38,10.20
2007,10,26,17,39,10.20
2007,10,26,17,40,10.10
2007,10,26,17,41,10.10
2007,10,26,17,42,10.00
2007,10,26,17,43,10.00
2007,10,26,17,44,9.90
2007,10,26,17,45,9.90
2007,10,26,17,46,9.90
2007,10,26,17,47,9.80
2007,10,26,17,48,9.80
2007,10,26,17,49,9.80
2007,10,26,17,50,9.70
2007,10,26,17,51,9.60
2007,10,26,17,52,9.60